Location: Boitzum
(52.1496°N, 9.6943°E)
Time: 00:25:42
(UTC+00:00)

Cosmos 2344 - Pass Details

Date: 13 January 2026
Orbit: 1195 x 3047 km, 63.3° (Epoch: 17 February)

Event Time Altitude Azimuth Distance (km) Brightness Sun altitude
Exits shadow 04:20:19 34° 330° (NNW) 1,880 4.2 -27.4°
Maximum altitude 04:21:44 37° 354° (N) 1,819 4.3 -27.1°
Drops below altitude 10° 04:29:04 10° 61° (ENE) 3,482 6.6 -26.0°
Sets 04:32:33 0° 69° (ENE) 4,658 7.6 -25.5°
